FW8286 Weather Reports


time (UTC)temp
F
wind
direction
speed
knots
gust
knots
rain 1hr
in
rain 24hr
in
rain mn
in
humidity
%
barometer
mb
20260508125528 53 208 5.2 12.2 0.00 0.00 0.00 75 1014.0
20260508125028 53 248 5.2 12.2 0.00 0.00 0.00 76 1014.1
20260508124541 52 270 4.3 12.2 0.00 0.00 0.00 77 1014.1
20260508124027 52 263 3.5 12.2 0.00 0.00 0.00 76 1014.1
20260508123531 52 207 4.3 10.4 0.00 0.00 0.00 76 1014.1
20260508123056 51 235 2.6 10.4 0.00 0.00 0.00 76 1014.0
20260508122527 51 223 5.2 10.4 0.00 0.00 0.00 77 1014.1
20260508122027 51 250 3.5 8.7 0.00 0.00 0.00 78 1014.0
20260508121540 50 244 3.5 8.7 0.00 0.00 0.00 79 1014.0
20260508121027 50 209 3.5 8.7 0.00 0.00 0.00 79 1013.8
20260508120527 49 221 4.3 8.7 0.00 0.00 0.00 80 1013.8
20260508120052 49 222 4.3 8.7 0.00 0.00 0.00 81 1013.7
20260508115527 48 217 4.3 9.6 0.00 0.00 0.00 83 1013.7
20260508115027 48 187 5.2 9.6 0.00 0.00 0.00 85 1013.6
20260508114542 47 200 5.2 9.6 0.00 0.00 0.00 86 1013.5
20260508114028 47 191 4.3 7.0 0.00 0.00 0.00 87 1013.5
20260508113529 46 182 3.5 6.1 0.00 0.00 0.00 87 1013.4
20260508113059 46 192 3.5 5.2 0.00 0.00 0.00 88 1013.6
20260508112531 45 183 3.5 5.2 0.00 0.00 0.00 88 1013.6
20260508112027 45 195 2.6 6.1 0.00 0.00 0.00 88 1013.6
20260508111546 45 178 3.5 6.1 0.00 0.00 0.00 88 1013.4
20260508111028 45 198 3.5 5.2 0.00 0.00 0.00 88 1013.5
20260508110528 44 194 2.6 5.2 0.00 0.00 0.00 87 1013.5
20260508110050 45 183 2.6 5.2 0.00 0.00 0.00 87 1013.2
20260508105527 45 181 2.6 7.0 0.00 0.00 0.00 87 1013.3
20260508105027 45 183 3.5 7.0 0.00 0.00 0.00 87 1013.3
20260508104544 45 173 4.3 7.0 0.00 0.00 0.00 87 1013.4
20260508104027 45 190 4.3 8.7 0.00 0.00 0.00 86 1013.1
20260508103529 46 180 4.3 8.7 0.00 0.00 0.00 86 1013.1
20260508103053 46 192 5.2 9.6 0.00 0.00 0.00 86 1013.2
20260508102527 46 200 5.2 10.4 0.00 0.00 0.00 86 1013.2
20260508102028 46 196 6.1 10.4 0.00 0.00 0.00 85 1013.3
20260508101541 46 209 4.3 9.6 0.00 0.00 0.00 85 1013.3
20260508101028 47 216 4.3 14.8 0.00 0.00 0.00 84 1014.0
20260508100528 47 226 3.5 14.8 0.00 0.00 0.00 84 1014.0
20260508100042 47 228 8.7 13.9 0.00 0.00 0.00 83 1013.9
20260508095527 47 215 3.5 10.4 0.00 0.00 0.00 84 1014.0
20260508095027 47 227 3.5 13.9 0.00 0.00 0.00 82 1013.8
20260508094540 47 216 4.3 19.1 0.00 0.00 0.00 81 1013.3
20260508094027 47 204 10.4 19.1 0.00 0.00 0.00 81 1013.2
20260508093527 47 186 7.8 13.9 0.00 0.00 0.00 83 1013.1
20260508093046 47 206 0.9 4.3 0.00 0.00 0.00 83 1013.7
20260508092527 47 205 1.7 4.3 0.00 0.00 0.00 83 1013.3
20260508092027 47 0 0.9 4.3 0.00 0.00 0.00 83 1013.3
20260508091552 47 208 2.6 5.2 0.00 0.00 0.00 83 1013.3
20260508091028 47 210 2.6 5.2 0.00 0.00 0.00 83 1013.3
20260508090528 47 205 2.6 4.3 0.00 0.00 0.00 83 1013.3
20260508090059 47 212 0.9 7.0 0.00 0.00 0.00 83 1013.3
20260508085527 47 248 2.6 8.7 0.00 0.00 0.00 83 1013.5
20260508085027 47 242 3.5 8.7 0.00 0.00 0.00 82 1013.5
20260508084545 47 261 3.5 8.7 0.00 0.00 0.00 82 1013.4
20260508084029 46 186 4.3 8.7 0.00 0.00 0.00 83 1013.5
20260508083528 46 205 3.5 8.7 0.00 0.00 0.00 83 1013.4
20260508083042 46 243 2.6 9.6 0.00 0.00 0.00 83 1013.7
20260508082529 45 228 3.5 9.6 0.00 0.00 0.00 84 1013.6
20260508082030 45 211 2.6 7.8 0.00 0.00 0.00 84 1013.6
20260508081543 45 208 3.5 7.8 0.00 0.00 0.00 84 1013.6
20260508081030 45 202 2.6 7.0 0.00 0.00 0.00 84 1013.7
20260508080531 45 204 3.5 10.4 0.00 0.00 0.00 83 1013.6
20260508080044 45 219 3.5 10.4 0.00 0.00 0.00 83 1013.6
20260508075528 45 212 5.2 7.8 0.00 0.00 0.00 84 1013.6
20260508075027 45 205 4.3 7.8 0.00 0.00 0.00 84 1013.6
20260508074545 45 193 4.3 7.8 0.00 0.00 0.00 84 1013.7
20260508074031 45 192 3.5 7.8 0.00 0.00 0.00 84 1013.6
20260508073527 45 192 4.3 7.8 0.00 0.00 0.00 84 1013.7
20260508073101 45 200 3.5 7.0 0.00 0.00 0.00 84 1013.7
20260508072534 45 196 3.5 8.7 0.00 0.00 0.00 84 1013.7
20260508072029 45 196 4.3 8.7 0.00 0.00 0.00 84 1013.7
20260508071549 45 200 4.3 13.0 0.00 0.00 0.00 84 1013.9
20260508071031 46 204 5.2 13.0 0.00 0.00 0.00 84 1013.9
20260508070528 46 219 5.2 9.6 0.00 0.00 0.00 84 1013.9
20260508070049 46 190 6.1 9.6 0.00 0.00 0.00 83 1014.0
20260508065529 46 204 5.2 10.4 0.00 0.00 0.00 83 1014.0
20260508065028 46 205 7.0 11.3 0.00 0.00 0.00 83 1013.8
20260508064546 46 219 7.0 12.2 0.00 0.00 0.00 83 1013.9
20260508064028 47 213 7.0 17.4 0.00 0.00 0.00 83 1013.9
20260508063528 47 211 7.8 17.4 0.00 0.00 0.00 82 1014.0
20260508063044 47 215 10.4 26.1 0.00 0.00 0.00 82 1013.9
20260508062528 47 206 12.2 26.1 0.00 0.00 0.00 81 1013.7
20260508062028 48 232 7.8 20.9 0.00 0.00 0.00 79 1013.9
20260508061542 49 209 7.8 20.9 0.00 0.00 0.00 75 1014.2
20260508061027 49 202 11.3 16.5 0.00 0.00 0.00 73 1014.0
20260508060528 49 212 7.8 14.8 0.00 0.00 0.00 74 1014.1
20260508060048 48 216 5.2 9.6 0.00 0.00 0.00 74 1014.0
20260508055527 48 222 5.2 9.6 0.00 0.00 0.00 74 1014.0
20260508055027 47 199 4.3 9.6 0.00 0.00 0.00 76 1014.0
20260508054545 47 199 3.5 7.8 0.00 0.00 0.00 77 1014.1
20260508054027 46 188 4.3 7.0 0.00 0.00 0.00 78 1014.2
20260508053532 46 199 4.3 7.0 0.00 0.00 0.00 78 1014.2
20260508053101 45 198 3.5 6.1 0.00 0.00 0.00 80 1014.1
20260508052528 44 184 3.5 5.2 0.00 0.00 0.00 82 1014.2
20260508052028 44 178 2.6 4.3 0.00 0.00 0.00 83 1014.3
20260508051544 44 182 2.6 3.5 0.00 0.00 0.00 83 1014.3
20260508051028 44 185 1.7 2.6 0.00 0.00 0.00 83 1014.3
20260508050528 44 186 1.7 2.6 0.00 0.00 0.00 83 1014.4
20260508050044 44 186 1.7 2.6 0.00 0.00 0.00 83 1014.3
20260508045530 44 186 1.7 2.6 0.00 0.00 0.00 83 1014.5
20260508045027 44 186 0.9 2.6 0.00 0.00 0.00 83 1014.5
20260508044541 44 186 0.0 1.7 0.00 0.00 0.00 82 1014.5
20260508044101 45 0 0.0 2.6 0.00 0.00 0.00 81 1014.4
20260508043527 45 186 0.9 2.6 0.00 0.00 0.00 80 1014.5
20260508043042 45 186 0.9 2.6 0.00 0.00 0.00 80 1014.4
20260508042527 46 186 0.9 3.5 0.00 0.00 0.00 79 1014.3
20260508042027 46 186 1.7 3.5 0.00 0.00 0.00 79 1014.3
20260508041607 46 186 1.7 3.5 0.00 0.00 0.00 78 1014.4
20260508041027 46 187 1.7 3.5 0.00 0.00 0.00 77 1014.4
20260508040528 47 187 1.7 3.5 0.00 0.00 0.00 77 1014.5
20260508040105 47 187 1.7 5.2 0.00 0.00 0.00 75 1014.5
20260508035529 47 187 2.6 5.2 0.00 0.00 0.00 75 1014.4
20260508035032 48 188 2.6 5.2 0.00 0.00 0.00 75 1014.4
20260508034542 48 192 3.5 4.3 0.00 0.00 0.00 74 1014.6
20260508034028 48 202 2.6 4.3 0.00 0.00 0.00 75 1014.7
20260508033527 48 201 2.6 5.2 0.00 0.00 0.00 74 1014.9
20260508033042 48 206 2.6 5.2 0.00 0.00 0.00 72 1014.6
20260508032528 49 211 1.7 5.2 0.00 0.00 0.00 71 1014.8
20260508032027 49 211 1.7 5.2 0.00 0.00 0.00 70 1014.7
20260508031541 49 210 3.5 7.0 0.00 0.00 0.00 69 1014.8
20260508031027 49 232 0.9 8.7 0.00 0.00 0.00 69 1014.8
20260508030530 49 205 4.3 13.0 0.00 0.00 0.00 69 1014.8
20260508030041 49 212 5.2 13.0 0.00 0.00 0.00 68 1014.9
20260508025529 49 227 7.0 12.2 0.00 0.00 0.00 67 1015.0
20260508025028 50 210 3.5 13.0 0.00 0.00 0.00 68 1015.1
20260508024550 50 211 6.1 13.9 0.00 0.00 0.00 67 1015.0
20260508024029 50 225 6.1 13.9 0.00 0.00 0.00 65 1015.1
20260508023528 50 217 4.3 13.9 0.00 0.00 0.00 65 1015.0
20260508023042 49 228 4.3 13.9 0.00 0.00 0.00 66 1014.9
20260508022527 49 227 2.6 7.0 0.00 0.00 0.00 68 1014.9
20260508022028 48 211 2.6 5.2 0.00 0.00 0.00 68 1014.7
20260508021542 48 213 3.5 7.0 0.00 0.00 0.00 68 1014.7
20260508021028 48 213 2.6 7.8 0.00 0.00 0.00 69 1014.8
20260508020528 48 221 3.5 7.8 0.00 0.00 0.00 71 1014.6
20260508020046 48 193 4.3 7.0 0.00 0.00 0.00 73 1014.6
20260508015528 47 206 3.5 5.2 0.00 0.00 0.00 75 1014.5
20260508015027 46 204 1.7 4.3 0.00 0.00 0.00 79 1014.5
20260508014541 46 0 1.7 4.3 0.00 0.00 0.00 81 1014.5
20260508014027 46 360 2.6 4.3 0.00 0.00 0.00 81 1014.4
20260508013530 46 182 1.7 3.5 0.00 0.00 0.00 82 1014.3
20260508013050 46 0 0.0 1.7 0.00 0.00 0.00 80 1014.3
20260508012528 46 0 0.9 1.7 0.00 0.00 0.00 80 1014.2
20260508012027 46 343 0.9 2.6 0.00 0.00 0.00 80 1014.2
20260508011551 46 343 0.9 2.6 0.00 0.00 0.00 79 1014.2
20260508011027 46 343 1.7 2.6 0.00 0.00 0.00 79 1014.2
20260508010527 46 343 0.9 2.6 0.00 0.00 0.00 78 1014.1
20260508010041 46 0 0.0 0.0 0.00 0.00 0.00 76 1014.1
20260508005527 47 0 0.0 0.0 0.00 0.00 0.00 75 1014.0
20260508005030 47 0 0.0 0.0 0.00 0.00 0.00 74 1014.0
20260508004547 47 0 0.0 0.0 0.00 0.00 0.00 72 1014.1
20260508004028 48 0 0.0 0.0 0.00 0.00 0.00 72 1014.0
20260508003527 49 0 0.0 0.0 0.00 0.00 0.00 69 1014.0
20260508003044 49 0 0.0 0.0 0.00 0.00 0.00 66 1014.0
20260508002528 50 0 0.0 0.0 0.00 0.00 0.00 65 1014.0
20260508002029 51 0 0.0 0.0 0.00 0.00 0.00 65 1013.9
20260508001542 52 0 0.0 0.0 0.00 0.00 0.00 60 1013.9
20260508001027 52 0 0.0 1.7 0.00 0.00 0.00 57 1013.8
20260508000528 52 0 0.0 3.5 0.00 0.00 0.00 58 1013.8
20260508000040 53 344 1.7 3.5 0.00 0.00 0.00 57 1013.8
20260507235527 53 0 0.9 3.5 0.00 0.00 0.00 57 1013.8
20260507235027 53 344 0.9 3.5 0.00 0.00 0.00 56 1013.8
20260507234541 53 342 1.7 5.2 0.00 0.00 0.00 56 1013.8
20260507234027 53 342 1.7 5.2 0.00 0.00 0.00 57 1013.8
20260507233527 53 348 2.6 7.8 0.00 0.00 0.00 55 1013.7
20260507233059 54 336 2.6 7.8 0.00 0.00 0.00 54 1013.7
20260507232527 54 305 5.2 7.8 0.00 0.00 0.00 53 1013.7
20260507232029 54 295 2.6 10.4 0.00 0.00 0.00 51 1013.7
20260507231545 54 303 4.3 10.4 0.00 0.00 0.00 49 1013.7
20260507231028 55 306 3.5 9.6 0.00 0.00 0.00 49 1013.8
20260507230528 55 315 6.1 11.3 0.00 0.00 0.00 49 1013.7
20260507230043 55 277 7.0 11.3 0.00 0.00 0.00 48 1013.7
20260507225531 56 259 6.1 11.3 0.00 0.00 0.00 49 1013.7
20260507225031 56 299 5.2 11.3 0.00 0.00 0.00 49 1013.7
20260507224553 56 296 4.3 10.4 0.00 0.00 0.00 50 1013.8
20260507224027 56 339 5.2 13.9 0.00 0.00 0.00 49 1013.8
20260507223529 56 301 6.1 14.8 0.00 0.00 0.00 50 1013.8
20260507223041 56 319 7.0 14.8 0.00 0.00 0.00 48 1013.8
20260507222530 56 294 7.8 13.9 0.00 0.00 0.00 49 1013.8
20260507222027 56 338 5.2 13.0 0.00 0.00 0.00 50 1013.7
20260507221543 56 343 6.1 13.9 0.00 0.00 0.00 49 1013.7
20260507221027 57 283 7.8 13.9 0.00 0.00 0.00 47 1013.6
20260507220528 57 302 7.0 13.0 0.00 0.00 0.00 51 1013.8
20260507220042 57 332 4.3 12.2 0.00 0.00 0.00 52 1013.7
20260507215531 56 320 3.5 13.0 0.00 0.00 0.00 52 1013.7
20260507215028 56 307 7.0 13.0 0.00 0.00 0.00 49 1013.7
20260507214541 55 278 6.1 12.2 0.00 0.00 0.00 50 1013.7
20260507214031 55 299 7.8 13.9 0.00 0.00 0.00 49 1013.6
20260507213527 55 294 6.1 13.9 0.00 0.00 0.00 51 1013.6
20260507213100 56 257 6.1 16.5 0.00 0.00 0.00 49 1013.6
20260507212527 56 316 5.2 16.5 0.00 0.00 0.00 50 1013.5
20260507212027 56 292 12.2 20.9 0.00 0.00 0.00 48 1013.7
20260507211547 57 300 7.8 20.9 0.00 0.00 0.00 50 1013.6
20260507211030 57 292 8.7 14.8 0.00 0.00 0.00 50 1013.4
20260507210530 56 300 9.6 17.4 0.00 0.00 0.00 47 1013.4
20260507210049 56 292 9.6 17.4 0.00 0.00 0.00 48 1013.5
20260507205527 56 288 11.3 17.4 0.00 0.00 0.00 49 1013.5
20260507205027 56 276 7.0 15.6 0.00 0.00 0.00 49 1013.3
20260507204542 56 286 10.4 15.6 0.00 0.00 0.00 49 1013.2
20260507204026 56 227 4.3 14.8 0.00 0.00 0.00 52 1013.2
20260507203527 57 294 7.0 14.8 0.00 0.00 0.00 50 1013.2
20260507203044 56 276 6.1 13.9 0.00 0.00 0.00 52 1013.1
20260507202527 57 219 4.3 16.5 0.00 0.00 0.00 52 1013.1
20260507202029 57 312 7.8 19.1 0.00 0.00 0.00 53 1013.2
20260507201539 56 262 7.8 19.1 0.00 0.00 0.00 51 1013.2
20260507201027 56 269 8.7 19.1 0.00 0.00 0.00 53 1013.2
20260507200527 54 294 6.1 13.0 0.00 0.00 0.00 54 1013.3
20260507200048 54 261 7.0 14.8 0.00 0.00 0.00 55 1013.4
20260507195527 54 267 6.1 14.8 0.00 0.00 0.00 55 1013.3
20260507195028 55 305 10.4 14.8 0.00 0.00 0.00 52 1013.3
20260507194611 56 300 6.1 13.9 0.00 0.00 0.00 52 1013.3
20260507194027 57 233 6.1 14.8 0.00 0.00 0.00 53 1013.4
20260507193526 57 261 5.2 14.8 0.00 0.00 0.00 54 1013.5
20260507193044 57 297 6.1 12.2 0.00 0.00 0.00 55 1013.4
20260507192528 56 269 4.3 12.2 0.00 0.00 0.00 61 1013.7
20260507192027 56 225 7.0 17.4 0.00 0.00 0.00 55 1013.6
20260507191547 56 198 5.2 17.4 0.00 0.00 0.00 58 1013.5
20260507191027 56 265 7.0 14.8 0.00 0.00 0.00 57 1013.7
20260507190527 55 284 9.6 14.8 0.00 0.00 0.00 58 1013.7
20260507190052 55 263 8.7 15.6 0.00 0.00 0.00 59 1013.6
20260507185528 55 283 8.7 15.6 0.00 0.00 0.00 56 1013.7
20260507185027 56 292 7.8 14.8 0.00 0.00 0.00 55 1013.6
20260507184543 57 300 7.8 13.9 0.00 0.00 0.00 53 1013.6
20260507184027 57 220 5.2 12.2 0.00 0.00 0.00 57 1013.5
20260507183526 56 269 4.3 13.9 0.00 0.00 0.00 60 1013.7
20260507183048 56 210 5.2 15.6 0.00 0.00 0.00 56 1013.6
20260507182527 56 259 7.0 15.6 0.00 0.00 0.00 59 1013.8
20260507182027 55 290 5.2 15.6 0.00 0.00 0.00 59 1013.7
20260507181546 54 201 7.8 12.2 0.00 0.00 0.00 55 1013.7
20260507181030 54 276 4.3 13.9 0.00 0.00 0.00 58 1013.9
20260507180527 55 224 5.2 13.9 0.00 0.00 0.00 56 1014.0
20260507180040 54 304 7.0 13.9 0.00 0.00 0.00 57 1013.9
20260507175530 54 245 7.8 11.3 0.00 0.00 0.00 56 1014.0
20260507175029 54 292 6.1 12.2 0.00 0.00 0.00 56 1014.0
20260507174556 54 250 7.0 12.2 0.00 0.00 0.00 57 1014.0
20260507174028 54 251 6.1 9.6 0.00 0.00 0.00 58 1014.0
20260507173527 54 273 3.5 9.6 0.00 0.00 0.00 58 1014.1
20260507173113 55 274 4.3 12.2 0.00 0.00 0.00 59 1014.0
20260507172528 55 257 4.3 12.2 0.00 0.00 0.00 57 1014.1
20260507172028 54 203 5.2 13.9 0.00 0.00 0.00 60 1014.0
20260507171548 54 288 7.8 13.9 0.00 0.00 0.00 56 1014.1
20260507171028 55 268 4.3 13.0 0.00 0.00 0.00 60 1014.1
20260507170528 55 287 8.7 13.0 0.00 0.00 0.00 54 1014.2
20260507170043 56 266 3.5 12.2 0.00 0.00 0.00 63 1014.2
20260507165527 55 267 6.1 11.3 0.00 0.00 0.00 57 1014.2
20260507165030 55 348 4.3 11.3 0.00 0.00 0.00 60 1014.1
20260507164549 55 279 5.2 11.3 0.00 0.00 0.00 61 1014.3
20260507164027 55 261 4.3 9.6 0.00 0.00 0.00 57 1014.3
20260507163528 56 250 3.5 8.7 0.00 0.00 0.00 59 1014.1
20260507163040 56 275 3.5 10.4 0.00 0.00 0.00 59 1014.1
20260507162527 55 232 4.3 10.4 0.00 0.00 0.00 62 1014.1
20260507162027 55 229 2.6 10.4 0.00 0.00 0.00 60 1014.0
20260507161559 55 288 7.0 10.4 0.00 0.00 0.00 58 1014.1
20260507161028 56 249 4.3 13.9 0.00 0.00 0.00 57 1014.0
20260507160528 55 282 3.5 13.9 0.00 0.00 0.00 63 1014.2
20260507160045 55 259 6.1 13.9 0.00 0.00 0.00 62 1014.3
20260507155528 54 289 8.7 12.2 0.00 0.00 0.00 60 1014.2
20260507155028 54 271 6.1 13.0 0.00 0.00 0.00 61 1014.3
20260507154543 54 307 5.2 13.0 0.00 0.00 0.00 63 1014.3
20260507154027 54 276 7.0 13.0 0.00 0.00 0.00 60 1014.4
20260507153527 53 296 8.7 13.0 0.00 0.00 0.00 60 1014.4
20260507153043 54 265 4.3 10.4 0.00 0.00 0.00 68 1014.3
20260507152530 54 312 7.0 9.6 0.00 0.00 0.00 67 1014.4
20260507152028 54 227 1.7 12.2 0.00 0.00 0.00 68 1014.2
20260507151541 54 261 5.2 12.2 0.00 0.00 0.00 67 1014.4
20260507151028 54 238 3.5 8.7 0.00 0.00 0.00 64 1014.4
20260507150528 53 226 4.3 8.7 0.00 0.00 0.00 68 1014.4
20260507150042 53 293 4.3 8.7 0.00 0.00 0.00 67 1014.4
20260507145527 53 200 2.6 9.6 0.00 0.00 0.00 68 1014.4
20260507145027 53 263 3.5 9.6 0.00 0.00 0.00 69 1014.4
20260507144546 53 236 3.5 7.0 0.00 0.00 0.00 73 1014.4
20260507144028 53 200 3.5 8.7 0.00 0.00 0.00 69 1014.4
20260507143528 52 233 1.7 8.7 0.00 0.00 0.00 73 1014.4
20260507143043 52 308 3.5 10.4 0.00 0.00 0.00 70 1014.3
20260507142528 52 275 4.3 10.4 0.00 0.00 0.00 72 1014.3
20260507142025 52 262 1.7 8.7 0.00 0.00 0.00 72 1014.3
20260507141551 52 301 3.5 7.0 0.00 0.00 0.00 73 1014.2
20260507141028 51 240 2.6 8.7 0.00 0.00 0.00 73 1014.5
20260507140528 51 267 2.6 8.7 0.00 0.00 0.00 73 1014.5
20260507140048 51 278 4.3 7.8 0.00 0.00 0.00 74 1014.6
20260507135528 51 249 2.6 7.0 0.00 0.00 0.00 75 1014.5
20260507135027 50 223 4.3 7.0 0.00 0.00 0.00 75 1014.4
20260507134545 50 221 3.5 7.8 0.00 0.00 0.00 75 1014.6
20260507134028 49 259 4.3 7.8 0.00 0.00 0.00 75 1014.6
20260507133529 49 261 3.5 7.0 0.00 0.00 0.00 77 1014.7
20260507133042 49 224 3.5 8.7 0.00 0.00 0.00 76 1014.6
20260507132529 48 211 4.3 8.7 0.00 0.00 0.00 77 1014.6
20260507132027 48 213 3.5 7.8 0.00 0.00 0.00 78 1014.7
20260507131541 48 215 4.3 7.8 0.00 0.00 0.00 77 1014.7
20260507131030 48 187 2.6 8.7 0.00 0.00 0.00 80 1014.8
20260507130532 48 207 3.5 8.7 0.00 0.00 0.00 79 1014.8
20260507130041 47 223 3.5 8.7 0.00 0.00 0.00 80 1014.8